SCP
0 0 0 0 0 0 0 0 0 0 0 0 0 0 0 0 0 0 -0 0 0 0 0 0 0 0 0 0 -0 0 0 0 0 0 0 0 0 0
0 0 0 0 0 0 0 0 0 0 0 0 0 0 0 0 0 0 0 0 0 0 0 -0 -0 -0 0 0 0 0 0 0 0 0 0 0 0 0
0 0 0 -0 0 0 0 0 0 0 0 0 0 0 0 0 0 0 0 0 0 0 0 -0 -0 -0 -0 0 0 0 0 0 0 0 0 0 0 0
0 0 0 0 0 0 0 0 0 0 0 0 0 0 0 0 0 0 0 0 0 -0 0 -0 -0 -0 -0 0 0 0 0 0 0 0 0 0 0 0
0 0 0 0 0 0 0 0 0 0 0 0 0 0 0 0 0 0 0 0 0 -0 -0 -0 -0 0 0 0 0 0 0 0 0 0 0 0 0 0
0 0 0 0 0 0 0 0 0 0 0 0 0 0 0 0 0 0 0 0 0 0 0 0 0 0 0 0 0 0 0 0 0 0 0 0 0 0
0 0 0 0 0 0 0 0 0 0 0 0 0 0 0 0 0 0 0 0 0 0 0 0 0 0 0 0 0 0 0 0 0 0 0 0 0 0
0 0 0 -0 0 0 0 0 0 -0 0 -0 0 0 0 0 0 0 0 0 0 0 0 0 0 0 0 0 0 0 0 0 0 0 0 0 0 0
0 0 0 0 0 -0 -0 0 0 0 0 0 0 0 0 0 0 0 0 0 0 0 0 0 0 0 0 0 0 0 0 0 0 0 0 0 0 0
0 0 0 0 -0 0 0 0 0 0 0 0 0 0 0 -0 -0 0 0 0 0 0 0 0 0 0 0 0 0 0 0 0 0 0 0 0 0 0
0 -0 0 0 0 0 0 0 0 0 0 0 0 0 0 -0 0 0 0 0 0 0 0 0 0 0 0 0 0 0 0 0 0 0 0 0 0 0
0 0 0 0 0 0 0 0 0 0 0 0 0 -0 0 -0 -0 -0 0 0 0 0 0 0 0 0 0 0 0 0 0 0 0 0 0 0 0 0
0 0 0 0 0 0 0 0 -0 0 0 0 0 0 0 0 0 0 0 0 0 0 0 0 0 0 0 0 0 0 0 0 0 0 0 0 0 0
-0 -0 -0 -0 -0 0 0 0 0 0 0 0 0 0 0 0 0 0 0 0 0 0 0 0 0 0 0 0 0 0 0 0 0 0 0 0 0 0
-0 -0 0 0 0 0 0 0 0 0 0 0 0 0 0 0 0 0 0 0 0 0 0 0 0 0 0 0 0 0 0 0 0 0 0 0 0 0
0 0 0 0 0 0 0 -0 -0 0 0 0 0 0 0 0 0 0 0 0 0 0 0 0 0 0 0 0 0 0 0 0 0 0 0 0 0 0
-0 -0 0 0 0 0 0 0 0 0 0 0 0 0 0 0 0 0 0 0 0 0 0 0 0 0 0 0 0 0 0 0 0 0 0 0 0 0
0 0 0 0 0 0 0 0 0 0 0 0 0 0 0 0 0 0 0 0 0 0 0 0 0 0 0 -0 0 0 0 0 0 0 0 0 0 0
0 0 0 0 0 0 0 0 0 0 0 0 0 0 0 0 0 0 0 0 0 0 0 0 0 0 0 0 -0 0 0 0 0 0 0 0 0 0
0 0 0 0 0 0 0 0 0 0 0 0 0 0 0 0 0 0 0 0 0 0 0 0 0 0 0 0 0 0 0 0 0 0 0 0 0 0
0 0 0 0 0 0 0 0 0 0 0 0 0 0 0 0 0 0 0 0 0 0 0 0 0 0 0 0 0 0 0 0 0 0 0 0 0 0
0 0 0 0 0 0 0 0 0 0 0 0 0 0 0 0 0 0 0 0 0 0 0 0 0 0 0 0 0 0 0 0 0 0 0 0 0 0
0 0 0 0 0 0 0 0 0 0 0 0 0 0 0 0 0 0 0 0 0 0 0 0 0 0 0 0 0 0 0 0 0 0 0 0 0 0
Wind_Speed_500mb
23 27 25 32 46 46 36 63 61 38 38 48 46 54 57 68 41 44 34 27 21 14 9 11 12 13 9 4 7 10 11 13 17 22 26 28 31 35
19 20 28 39 52 40 53 51 49 59 32 65 48 59 56 51 41 37 29 22 15 7 8 10 9 9 6 6 11 12 16 18 22 26 31 35 39 41
22 28 31 40 50 46 43 49 52 60 55 45 42 44 54 50 42 33 20 9 9 8 8 6 7 7 8 12 16 18 21 24 29 33 38 42 44 46
23 32 31 41 43 50 52 51 43 46 40 44 36 44 72 44 38 28 12 7 10 9 8 5 5 7 10 11 14 20 26 31 36 40 44 45 46 47
18 25 34 43 49 52 47 45 36 38 35 45 37 39 43 38 38 24 12 11 10 8 5 1 2 4 10 16 21 26 31 37 40 44 45 44 48 50
17 25 33 40 49 44 51 39 37 40 40 37 39 38 36 34 31 22 18 12 8 3 3 6 8 10 17 24 30 37 39 42 46 51 53 53 56 59
16 23 31 38 50 46 42 41 46 48 47 44 47 39 34 29 25 15 17 12 7 6 11 11 14 15 17 22 25 29 38 45 47 49 52 56 59 65
25 24 29 44 50 45 37 42 35 42 49 51 33 23 22 23 22 17 16 14 11 15 12 13 13 16 16 20 28 35 37 41 44 46 48 56 61 64
28 32 39 45 43 41 46 39 34 29 25 18 17 22 22 23 20 18 17 13 7 7 8 9 11 18 25 29 27 32 39 45 47 49 49 51 56 57
33 32 44 54 55 50 42 33 24 25 26 24 24 20 18 16 14 12 7 3 4 2 5 6 9 20 27 25 32 38 44 41 42 43 45 48 51 56
35 45 50 44 50 40 28 28 28 25 17 12 14 13 5 15 12 10 7 5 3 2 7 8 19 31 29 26 23 33 34 43 45 53 56 58 58 57
39 39 41 43 37 30 28 23 22 21 18 17 23 22 11 9 9 8 5 2 1 3 11 13 23 23 11 10 30 34 46 50 53 56 54 59 59 63
35 37 35 32 29 31 28 22 19 20 15 13 13 12 7 8 7 5 5 11 13 12 12 15 15 12 12 22 36 42 51 56 59 55 62 61 59 62
34 33 30 31 31 33 31 25 24 20 18 15 16 16 14 13 14 19 18 15 15 15 14 6 5 10 20 29 38 46 50 57 51 65 64 62 60 62
22 29 30 31 32 31 29 31 33 26 24 23 21 19 20 21 17 14 15 16 16 9 5 1 3 14 23 30 35 44 52 49 58 63 65 60 56 53
24 25 32 33 33 32 35 36 34 29 26 25 21 18 19 20 18 16 16 14 11 14 9 2 12 20 25 32 35 42 49 47 59 61 61 53 43 40
34 34 38 43 45 46 44 42 38 34 31 30 28 25 25 21 19 19 18 17 17 17 8 6 15 22 27 31 38 48 53 55 56 58 61 62 54 47
41 42 46 50 51 53 50 47 43 39 36 32 32 31 26 28 25 28 22 20 23 15 7 4 13 20 25 35 42 52 55 57 56 56 56 63 68 62
47 48 47 52 52 54 54 51 48 43 39 40 41 36 36 34 31 27 30 24 20 11 5 6 15 24 32 43 36 49 54 54 57 60 61 61 66 66
58 56 53 54 54 56 58 58 54 50 49 45 44 44 44 39 38 41 26 30 26 16 5 7 16 27 34 38 40 43 47 50 54 58 64 66 63 62
68 65 63 62 62 61 60 61 60 59 55 53 52 51 50 44 50 29 33 34 23 14 5 5 15 25 31 33 36 42 42 40 43 51 58 63 69 62
66 71 69 67 65 65 63 62 62 62 61 61 60 60 55 54 43 32 31 24 22 13 6 4 14 21 26 33 38 41 45 44 39 35 35 41 49 50
62 68 72 72 71 70 69 67 65 62 65 68 69 68 62 54 38 36 27 33 24 15 6 3 11 19 26 32 36 39 43 46 50 45 40 39 28 32
Wind_Direction_500mb
198 206 212 193 180 161 202 185 165 143 137 166 156 168 167 162 169 155 156 162 162 168 190 206 198 203 204 243 321 321 316 312 316 320 324 321 320 317
200 201 188 183 180 178 178 172 181 168 143 161 167 172 174 182 160 148 152 159 167 197 197 202 204 217 241 299 310 319 326 327 322 321 321 320 318 316
190 177 173 176 180 178 176 181 188 181 164 162 168 176 180 181 153 151 150 162 203 189 196 204 229 252 274 306 318 328 329 329 324 323 320 318 318 317
157 177 175 174 179 175 171 164 179 180 179 163 179 171 174 160 157 169 189 173 176 187 183 185 225 256 292 315 333 330 326 328 323 323 319 317 316 315
138 155 162 169 172 174 170 168 174 173 171 168 159 151 145 155 164 177 205 175 188 183 166 135 127 358 331 336 340 328 324 315 315 313 311 309 306 306
150 164 162 173 171 155 152 164 175 170 156 163 161 152 162 173 179 197 203 182 167 119 85 57 38 15 349 333 328 321 316 312 309 306 304 302 299 294
151 168 170 173 172 146 153 139 139 144 143 141 144 146 157 173 188 182 176 172 136 112 86 51 25 4 336 324 316 313 309 307 310 308 306 303 299 297
156 174 162 170 159 148 144 142 150 148 151 152 158 175 184 185 176 161 163 145 117 99 47 15 13 358 354 341 328 325 322 318 315 312 309 308 307 308
148 160 161 160 159 154 145 140 146 159 169 173 148 132 136 143 144 139 128 116 82 18 25 5 18 357 356 343 335 329 324 327 325 323 322 320 318 317
136 137 144 141 147 147 151 153 148 144 141 133 114 98 109 130 131 135 147 119 52 56 16 19 355 351 352 332 326 326 327 333 335 334 330 326 320 317
147 147 144 138 145 146 146 140 144 141 144 151 175 167 154 157 149 135 135 143 183 27 5 339 329 332 331 315 326 334 333 339 336 330 328 324 322 317
148 159 153 147 150 151 143 138 151 144 126 122 140 149 157 124 99 94 85 56 302 261 318 310 312 327 329 300 332 341 344 341 337 333 329 330 326 315
156 162 172 175 171 164 153 149 154 154 151 152 157 176 177 138 143 179 250 276 278 268 280 307 306 329 1 349 347 347 346 342 340 339 336 338 336 332
165 166 166 169 171 176 179 185 200 213 224 224 200 183 184 208 238 251 258 251 262 280 265 273 348 13 0 355 353 348 350 347 349 344 345 348 344 340
166 173 177 179 182 187 194 206 214 227 216 206 206 213 220 228 222 223 248 258 253 206 172 166 31 4 3 3 357 353 353 356 350 347 348 351 343 339
194 188 192 193 194 197 200 202 208 210 214 221 234 235 219 207 217 231 251 235 203 180 173 106 16 14 10 4 2 2 1 359 353 350 345 349 349 340
207 206 200 200 201 199 200 202 204 212 224 236 240 235 217 212 212 232 222 205 202 171 164 38 19 11 4 6 6 4 2 358 354 347 346 343 351 349
212 212 208 206 205 202 202 206 212 222 231 237 239 232 229 212 215 194 197 194 185 169 152 57 20 7 11 14 11 2 359 355 351 350 345 342 345 351
221 219 216 210 206 208 212 217 223 229 237 242 236 226 212 210 207 198 189 189 204 189 177 31 3 2 10 15 13 359 352 353 350 348 345 344 343 347
221 222 220 216 216 217 220 225 230 233 237 235 222 217 212 211 203 187 198 210 198 188 188 347 358 4 11 9 3 0 352 353 351 348 345 346 347 349
221 222 222 222 223 224 227 230 235 239 239 232 222 218 212 213 195 203 197 189 195 198 216 341 360 3 6 1 359 359 2 8 357 352 347 347 351 353
229 228 227 227 229 231 231 233 234 238 237 230 224 212 207 201 200 193 196 201 205 204 216 351 6 2 356 2 360 359 3 2 5 4 0 358 355 349
236 235 233 233 232 232 236 239 239 237 232 230 219 209 204 195 192 188 196 213 214 201 200 357 4 359 1 357 357 3 0 2 3 8 15 11 13 3
Wind_Speed_850mb
23 27 25 32 46 46 36 63 61 38 38 48 46 54 57 68 41 44 34 27 21 14 9 11 12 13 9 4 7 10 11 13 17 22 26 28 31 35
19 20 28 39 52 40 53 51 49 59 32 65 48 59 56 51 41 37 29 22 15 7 8 10 9 9 6 6 11 12 16 18 22 26 31 35 39 41
22 28 31 40 50 46 43 49 52 60 55 45 42 44 54 50 42 33 20 9 9 8 8 6 7 7 8 12 16 18 21 24 29 33 38 42 44 46
23 32 31 41 43 50 52 51 43 46 40 44 36 44 72 44 38 28 12 7 10 9 8 5 5 7 10 11 14 20 26 31 36 40 44 45 46 47
18 25 34 43 49 52 47 45 36 38 35 45 37 39 43 38 38 24 12 11 10 8 5 1 2 4 10 16 21 26 31 37 40 44 45 44 48 50
17 25 33 40 49 44 51 39 37 40 40 37 39 38 36 34 31 22 18 12 8 3 3 6 8 10 17 24 30 37 39 42 46 51 53 53 56 59
16 23 31 38 50 46 42 41 46 48 47 44 47 39 34 29 25 15 17 12 7 6 11 11 14 15 17 22 25 29 38 45 47 49 52 56 59 65
25 24 29 44 50 45 37 42 35 42 49 51 33 23 22 23 22 17 16 14 11 15 12 13 13 16 16 20 28 35 37 41 44 46 48 56 61 64
28 32 39 45 43 41 46 39 34 29 25 18 17 22 22 23 20 18 17 13 7 7 8 9 11 18 25 29 27 32 39 45 47 49 49 51 56 57
33 32 44 54 55 50 42 33 24 25 26 24 24 20 18 16 14 12 7 3 4 2 5 6 9 20 27 25 32 38 44 41 42 43 45 48 51 56
35 45 50 44 50 40 28 28 28 25 17 12 14 13 5 15 12 10 7 5 3 2 7 8 19 31 29 26 23 33 34 43 45 53 56 58 58 57
39 39 41 43 37 30 28 23 22 21 18 17 23 22 11 9 9 8 5 2 1 3 11 13 23 23 11 10 30 34 46 50 53 56 54 59 59 63
35 37 35 32 29 31 28 22 19 20 15 13 13 12 7 8 7 5 5 11 13 12 12 15 15 12 12 22 36 42 51 56 59 55 62 61 59 62
34 33 30 31 31 33 31 25 24 20 18 15 16 16 14 13 14 19 18 15 15 15 14 6 5 10 20 29 38 46 50 57 51 65 64 62 60 62
22 29 30 31 32 31 29 31 33 26 24 23 21 19 20 21 17 14 15 16 16 9 5 1 3 14 23 30 35 44 52 49 58 63 65 60 56 53
24 25 32 33 33 32 35 36 34 29 26 25 21 18 19 20 18 16 16 14 11 14 9 2 12 20 25 32 35 42 49 47 59 61 61 53 43 40
34 34 38 43 45 46 44 42 38 34 31 30 28 25 25 21 19 19 18 17 17 17 8 6 15 22 27 31 38 48 53 55 56 58 61 62 54 47
41 42 46 50 51 53 50 47 43 39 36 32 32 31 26 28 25 28 22 20 23 15 7 4 13 20 25 35 42 52 55 57 56 56 56 63 68 62
47 48 47 52 52 54 54 51 48 43 39 40 41 36 36 34 31 27 30 24 20 11 5 6 15 24 32 43 36 49 54 54 57 60 61 61 66 66
58 56 53 54 54 56 58 58 54 50 49 45 44 44 44 39 38 41 26 30 26 16 5 7 16 27 34 38 40 43 47 50 54 58 64 66 63 62
68 65 63 62 62 61 60 61 60 59 55 53 52 51 50 44 50 29 33 34 23 14 5 5 15 25 31 33 36 42 42 40 43 51 58 63 69 62
66 71 69 67 65 65 63 62 62 62 61 61 60 60 55 54 43 32 31 24 22 13 6 4 14 21 26 33 38 41 45 44 39 35 35 41 49 50
62 68 72 72 71 70 69 67 65 62 65 68 69 68 62 54 38 36 27 33 24 15 6 3 11 19 26 32 36 39 43 46 50 45 40 39 28 32
Wind_Direction_850mb
198 206 212 193 180 161 202 185 165 143 137 166 156 168 167 162 169 155 156 162 162 168 190 206 198 203 204 243 321 321 316 312 316 320 324 321 320 317
200 201 188 183 180 178 178 172 181 168 143 161 167 172 174 182 160 148 152 159 167 197 197 202 204 217 241 299 310 319 326 327 322 321 321 320 318 316
190 177 173 176 180 178 176 181 188 181 164 162 168 176 180 181 153 151 150 162 203 189 196 204 229 252 274 306 318 328 329 329 324 323 320 318 318 317
157 177 175 174 179 175 171 164 179 180 179 163 179 171 174 160 157 169 189 173 176 187 183 185 225 256 292 315 333 330 326 328 323 323 319 317 316 315
138 155 162 169 172 174 170 168 174 173 171 168 159 151 145 155 164 177 205 175 188 183 166 135 127 358 331 336 340 328 324 315 315 313 311 309 306 306
150 164 162 173 171 155 152 164 175 170 156 163 161 152 162 173 179 197 203 182 167 119 85 57 38 15 349 333 328 321 316 312 309 306 304 302 299 294
151 168 170 173 172 146 153 139 139 144 143 141 144 146 157 173 188 182 176 172 136 112 86 51 25 4 336 324 316 313 309 307 310 308 306 303 299 297
156 174 162 170 159 148 144 142 150 148 151 152 158 175 184 185 176 161 163 145 117 99 47 15 13 358 354 341 328 325 322 318 315 312 309 308 307 308
148 160 161 160 159 154 145 140 146 159 169 173 148 132 136 143 144 139 128 116 82 18 25 5 18 357 356 343 335 329 324 327 325 323 322 320 318 317
136 137 144 141 147 147 151 153 148 144 141 133 114 98 109 130 131 135 147 119 52 56 16 19 355 351 352 332 326 326 327 333 335 334 330 326 320 317
147 147 144 138 145 146 146 140 144 141 144 151 175 167 154 157 149 135 135 143 183 27 5 339 329 332 331 315 326 334 333 339 336 330 328 324 322 317
148 159 153 147 150 151 143 138 151 144 126 122 140 149 157 124 99 94 85 56 302 261 318 310 312 327 329 300 332 341 344 341 337 333 329 330 326 315
156 162 172 175 171 164 153 149 154 154 151 152 157 176 177 138 143 179 250 276 278 268 280 307 306 329 1 349 347 347 346 342 340 339 336 338 336 332
165 166 166 169 171 176 179 185 200 213 224 224 200 183 184 208 238 251 258 251 262 280 265 273 348 13 0 355 353 348 350 347 349 344 345 348 344 340
166 173 177 179 182 187 194 206 214 227 216 206 206 213 220 228 222 223 248 258 253 206 172 166 31 4 3 3 357 353 353 356 350 347 348 351 343 339
194 188 192 193 194 197 200 202 208 210 214 221 234 235 219 207 217 231 251 235 203 180 173 106 16 14 10 4 2 2 1 359 353 350 345 349 349 340
207 206 200 200 201 199 200 202 204 212 224 236 240 235 217 212 212 232 222 205 202 171 164 38 19 11 4 6 6 4 2 358 354 347 346 343 351 349
212 212 208 206 205 202 202 206 212 222 231 237 239 232 229 212 215 194 197 194 185 169 152 57 20 7 11 14 11 2 359 355 351 350 345 342 345 351
221 219 216 210 206 208 212 217 223 229 237 242 236 226 212 210 207 198 189 189 204 189 177 31 3 2 10 15 13 359 352 353 350 348 345 344 343 347
221 222 220 216 216 217 220 225 230 233 237 235 222 217 212 211 203 187 198 210 198 188 188 347 358 4 11 9 3 0 352 353 351 348 345 346 347 349
221 222 222 222 223 224 227 230 235 239 239 232 222 218 212 213 195 203 197 189 195 198 216 341 360 3 6 1 359 359 2 8 357 352 347 347 351 353
229 228 227 227 229 231 231 233 234 238 237 230 224 212 207 201 200 193 196 201 205 204 216 351 6 2 356 2 360 359 3 2 5 4 0 358 355 349
236 235 233 233 232 232 236 239 239 237 232 230 219 209 204 195 192 188 196 213 214 201 200 357 4 359 1 357 357 3 0 2 3 8 15 11 13 3